THORAD AGENA D DEB, 42550

Orbit data source: Space-Track

THORAD AGENA D DEB, 42550 is space debris in SSO originally from a launch on Wed, 08 Apr 1970 UTC launched from the Air Force Western Test Range (AFWTR). Debris objects in space refer to the collection of defunct objects orbiting the Earth. Examples of debris include non-operational satellites, rocket bodies, and fragments generated from explosions, collisions, or faulty payload assembly.

Loading next visibility...
Identifier
42550, 1970-025TG
Orbit
SSO
Country
Flag of USUS
Related business
Manufacturer
Unknown
Mission
Spacecraft
Bus & Motor
Unknown
Mass
Unknown
Launch date (UTC)
1970-04-08 (56 years ago)
Launch vehicle
Unknown
Launch site
Air Force Western Test Range (AFWTR)
Object type
Payload
Rocket body
Debris
Shape & HBR
Unknown shape, 0.1 m
Radar Cross Section
Small (<0.1 m²)

Expand to show TLE details & history
Last TLE update: 5 days ago

TLE from 5 days ago
0 THORAD AGENA D DEB
1 42550U 70025TG  26169.06182962  .00000644  00000-0  36122-3 0  9999
2 42550  99.2681 117.0647 0020058 242.3853 178.0697 14.14305069646862
Epoch: 2026-06-18T01:29Z
TLE epoch observation values (Epoch: 2026-06-18T01:29:02.079Z)
Latitude
59.26576°
Longitude
172.65167°
Altitude
869.153 km
Speed
7.416 km/s
True Right ascension
06h 44m 53s
True Declination
59° 07' 00"
Sunlit
Object was in daylight at epoch
Visualization orbit readout
Latitude
Unknown
Longitude
Unknown
Altitude
Unknown
Speed
Unknown
Apparent Right ascension
Unknown
Apparent Declination
Unknown
Sunlit
N/A
Visualization observer readout
Local Sidereal Time
00:50:02
Azimuth
Unknown
Elevation
Unknown
Doppler factor
Unknown
Orbital elements
Apogee altitude
856.353 km
Perigee altitude
827.389 km
Semi-major axis
7,220.008 km
Eccentricity
0.00201
Inclination
99.2681°
RAAN
117.0647°
Arg. of periapsis
242.3853°
True anomaly
178.07742°
Mean anomaly
178.0697°
Eccentric anomaly
178.07356°
Mean motion
3.53783 °/min
Orbital period
101.76 mins
BSTAR
0.00036122

Documentation

Showing up to 5 results
|